Accueil
METAR-TAF:

METAR-TAF

Aéroports :

Frontone, Italie

latitude: 43-31N, longitude: 012-44E, altitude: 570 m

Observation

Le bulletin a été fait il y a 32 minutes, à 11:55 UTC
Vent 4 kt de est/sud-est
Température 25°C
Humidité 39%
Pression 1019 hPa
Visibilité 10 km ou plus
Nuages épars à une hauteur de 3000 ft

METAR: LIVF 121155Z 12004KT 9999 SCT030 25/10 Q1019 RMK SCT MON S W CLD CIME NC VAL NIL VIS MIN 9999

Heure: 14:27 (12:27 UTC)


TAF: absent

Observations et prévisions météorologiques de plus de 4000 aéroports (messages METAR et TAF).

Les stations disponibles sont représentées par des disques jaunes et rouges sur la carte.

Passer la souris dessus pour voir le nom de la station.

Cliquer dessus pour voir les observations et prévisions météorologiques.

Pour changer de carte: cliquez sur les boutons verts avec une croix noire pour zoomer, sur le bouton vert avec un tiret pour effectuer un zoom arrière, ou sur les flèches vertes pour les cartes adjacentes.


METAR-TAF: